PTEBM SBGO-SBDB

Flight info

Callsign PTEBM
Flight time 1h 17m
Altitude 37000
Route UBSUS UM544 GRD
Aircraft C750/M-SBDE3FGHRWXY/S

Departure

Time 2026-05-04 12:45
Airport Santa Genoveva International Airport (SBGO)

Arrival

Time 2026-05-04 14:02
Airport Bonito Airport (SBDB)
Time Latitude Longitude Altitude Speed Heading
2026-05-04 12:38 -16.63362 -49.22447 2440 ft 0 kts 210°
2026-05-04 12:40 -16.63367 -49.22451 2438 ft 3 kts 229°
2026-05-04 12:41 -16.63364 -49.22482 2443 ft 6 kts 294°
2026-05-04 12:41 -16.63326 -49.22532 2446 ft 12 kts 334°
2026-05-04 12:41 -16.63227 -49.22517 2446 ft 15 kts 11°
2026-05-04 12:41 -16.63161 -49.22555 2447 ft 11 kts 300°
2026-05-04 12:42 -16.63119 -49.22629 2449 ft 13 kts 301°
2026-05-04 12:42 -16.63071 -49.22721 2454 ft 17 kts 301°
2026-05-04 12:42 -16.63005 -49.22840 2450 ft 21 kts 300°
2026-05-04 12:42 -16.62934 -49.22966 2454 ft 19 kts 300°
2026-05-04 12:43 -16.62863 -49.23076 2451 ft 18 kts 322°
2026-05-04 12:43 -16.62777 -49.23106 2452 ft 9 kts 346°
2026-05-04 12:43 -16.62743 -49.23115 2455 ft 0 kts 344°
2026-05-04 12:44 -16.62721 -49.23122 2452 ft 9 kts 345°
2026-05-04 12:44 -16.62651 -49.23109 2450 ft 11 kts 59°
2026-05-04 12:44 -16.62660 -49.23065 2452 ft 0 kts 119°
2026-05-04 12:45 -16.62867 -49.22693 2461 ft 114 kts 121°
2026-05-04 12:45 -16.63369 -49.21817 2636 ft 159 kts 123°
2026-05-04 12:45 -16.64023 -49.20766 3147 ft 187 kts 124°
2026-05-04 12:45 -16.64722 -49.19519 3681 ft 213 kts 115°
2026-05-04 12:46 -16.65575 -49.18135 4113 ft 247 kts 131°
2026-05-04 12:46 -16.67234 -49.17357 4748 ft 278 kts 168°
2026-05-04 12:46 -16.69182 -49.17599 5719 ft 289 kts 192°
2026-05-04 12:46 -16.71066 -49.18357 6708 ft 291 kts 201°
2026-05-04 12:47 -16.72938 -49.19178 7711 ft 293 kts 200°
2026-05-04 12:47 -16.74894 -49.19927 8105 ft 315 kts 198°
2026-05-04 12:47 -16.76917 -49.20661 7992 ft 301 kts 198°
2026-05-04 12:47 -16.78860 -49.21399 7971 ft 295 kts 199°
2026-05-04 12:48 -16.80779 -49.22148 7966 ft 296 kts 199°
2026-05-04 12:48 -16.82723 -49.22896 7970 ft 300 kts 199°
2026-05-04 12:48 -16.84699 -49.23650 7963 ft 304 kts 200°
2026-05-04 12:48 -16.86516 -49.24775 7908 ft 308 kts 224°
2026-05-04 12:49 -16.87670 -49.26614 8153 ft 302 kts 249°
2026-05-04 12:49 -16.88350 -49.28662 9322 ft 294 kts 253°
2026-05-04 12:49 -16.88982 -49.30659 10305 ft 298 kts 254°
2026-05-04 12:49 -16.89667 -49.32795 10633 ft 323 kts 253°
2026-05-04 12:50 -16.90416 -49.35107 10806 ft 350 kts 253°
2026-05-04 12:50 -16.91216 -49.37580 11229 ft 363 kts 253°
2026-05-04 12:50 -16.92022 -49.40077 12064 ft 364 kts 252°
2026-05-04 12:50 -16.92832 -49.42598 12780 ft 369 kts 252°
2026-05-04 12:51 -16.93652 -49.45150 13494 ft 373 kts 252°
2026-05-04 12:51 -16.94480 -49.47727 14191 ft 376 kts 251°
2026-05-04 12:51 -16.95316 -49.50322 14849 ft 378 kts 251°
2026-05-04 12:51 -16.96144 -49.52899 15495 ft 381 kts 251°
2026-05-04 12:52 -16.96988 -49.55528 16217 ft 382 kts 251°
2026-05-04 12:52 -16.97833 -49.58163 16950 ft 383 kts 251°
2026-05-04 12:52 -16.98686 -49.60822 17601 ft 388 kts 251°
2026-05-04 12:52 -16.99546 -49.63507 18268 ft 393 kts 251°
2026-05-04 12:53 -17.00416 -49.66219 18983 ft 394 kts 251°
2026-05-04 12:53 -17.01287 -49.68940 19660 ft 396 kts 251°
2026-05-04 12:53 -17.02164 -49.71679 20289 ft 400 kts 251°
2026-05-04 12:53 -17.03051 -49.74451 20920 ft 405 kts 251°
2026-05-04 12:54 -17.04164 -49.77160 21497 ft 409 kts 240°
2026-05-04 12:54 -17.05761 -49.79578 22168 ft 411 kts 232°
2026-05-04 12:54 -17.07497 -49.81959 22845 ft 413 kts 232°
2026-05-04 12:54 -17.09240 -49.84366 23509 ft 417 kts 232°
2026-05-04 12:55 -17.10987 -49.86796 24094 ft 420 kts 232°
2026-05-04 12:55 -17.12750 -49.89239 24685 ft 422 kts 232°
2026-05-04 12:55 -17.14522 -49.91689 25276 ft 424 kts 233°
2026-05-04 12:55 -17.16305 -49.94156 25871 ft 426 kts 233°
2026-05-04 12:56 -17.18090 -49.96633 26468 ft 428 kts 233°
2026-05-04 12:56 -17.19861 -49.99091 27047 ft 430 kts 233°
2026-05-04 12:56 -17.21669 -50.01598 27621 ft 433 kts 233°
2026-05-04 12:56 -17.23487 -50.04119 28196 ft 435 kts 233°
2026-05-04 12:57 -17.25314 -50.06655 28759 ft 438 kts 233°
2026-05-04 12:57 -17.27151 -50.09207 29304 ft 440 kts 233°
2026-05-04 12:57 -17.28999 -50.11774 29840 ft 443 kts 234°
2026-05-04 12:57 -17.30857 -50.14357 30328 ft 445 kts 234°
2026-05-04 12:58 -17.32726 -50.16954 30777 ft 447 kts 234°
2026-05-04 12:58 -17.34598 -50.19558 31281 ft 447 kts 234°
2026-05-04 12:58 -17.36431 -50.22108 31990 ft 443 kts 234°
2026-05-04 12:58 -17.38274 -50.24673 32685 ft 439 kts 234°
2026-05-04 12:59 -17.40101 -50.27216 33394 ft 435 kts 234°
2026-05-04 12:59 -17.41909 -50.29735 34099 ft 431 kts 234°
2026-05-04 12:59 -17.43705 -50.32237 34719 ft 428 kts 234°
2026-05-04 12:59 -17.45488 -50.34718 35313 ft 425 kts 234°
2026-05-04 13:00 -17.47271 -50.37179 35892 ft 423 kts 234°
2026-05-04 13:00 -17.49042 -50.39622 36485 ft 420 kts 234°
2026-05-04 13:00 -17.50800 -50.42058 37052 ft 419 kts 234°
2026-05-04 13:01 -17.54368 -50.47008 37095 ft 438 kts 234°
2026-05-04 13:01 -17.58113 -50.52196 37112 ft 454 kts 234°
2026-05-04 13:02 -17.61963 -50.57541 37113 ft 464 kts 234°
2026-05-04 13:02 -17.65877 -50.62982 37111 ft 471 kts 234°
2026-05-04 13:03 -17.69804 -50.68457 37115 ft 474 kts 234°
2026-05-04 13:03 -17.73783 -50.74003 37115 ft 477 kts 234°
2026-05-04 13:04 -17.77776 -50.79576 37113 ft 478 kts 234°
2026-05-04 13:04 -17.81769 -50.85152 37113 ft 477 kts 234°
2026-05-04 13:05 -17.85737 -50.90698 37115 ft 474 kts 234°
2026-05-04 13:05 -17.89653 -50.96178 37111 ft 471 kts 234°
2026-05-04 13:06 -17.93580 -51.01677 37108 ft 470 kts 234°
2026-05-04 13:06 -17.97494 -51.07165 37104 ft 469 kts 234°
2026-05-04 13:07 -18.01402 -51.12646 37109 ft 468 kts 234°
2026-05-04 13:07 -18.05303 -51.18124 37108 ft 468 kts 234°
2026-05-04 13:08 -18.09173 -51.23562 37101 ft 468 kts 234°
2026-05-04 13:08 -18.13068 -51.29040 37105 ft 468 kts 234°
2026-05-04 13:09 -18.16960 -51.34517 37108 ft 467 kts 234°
2026-05-04 13:09 -18.20842 -51.39987 37109 ft 466 kts 234°
2026-05-04 13:10 -18.24684 -51.45404 37104 ft 465 kts 234°
2026-05-04 13:10 -18.28549 -51.50857 37104 ft 464 kts 235°
2026-05-04 13:11 -18.32407 -51.56306 37106 ft 464 kts 235°
2026-05-04 13:11 -18.36258 -51.61751 37103 ft 464 kts 235°
2026-05-04 13:12 -18.40071 -51.67165 37105 ft 464 kts 235°
2026-05-04 13:12 -18.43915 -51.72618 37105 ft 464 kts 235°
2026-05-04 13:13 -18.47757 -51.78070 37107 ft 464 kts 235°
2026-05-04 13:13 -18.51609 -51.83522 37108 ft 464 kts 235°
2026-05-04 13:14 -18.55426 -51.88942 37109 ft 463 kts 235°
2026-05-04 13:14 -18.59262 -51.94386 37116 ft 462 kts 235°
2026-05-04 13:15 -18.63088 -51.99826 37112 ft 461 kts 235°
2026-05-04 13:15 -18.66908 -52.05258 37122 ft 461 kts 235°
2026-05-04 13:16 -18.70695 -52.10649 37118 ft 460 kts 235°
2026-05-04 13:16 -18.74500 -52.16070 37121 ft 460 kts 235°
2026-05-04 13:17 -18.78304 -52.21496 37123 ft 460 kts 235°
2026-05-04 13:17 -18.82104 -52.26919 37124 ft 459 kts 235°
2026-05-04 13:18 -18.85876 -52.32308 37118 ft 459 kts 235°
2026-05-04 13:18 -18.89669 -52.37731 37116 ft 459 kts 235°
2026-05-04 13:19 -18.93458 -52.43155 37115 ft 459 kts 235°
2026-05-04 13:19 -18.97240 -52.48585 37124 ft 459 kts 235°
2026-05-04 13:20 -19.00996 -52.53975 37114 ft 458 kts 236°
2026-05-04 13:20 -19.04771 -52.59401 37113 ft 458 kts 236°
2026-05-04 13:21 -19.08546 -52.64828 37115 ft 458 kts 236°
2026-05-04 13:21 -19.12316 -52.70250 37113 ft 458 kts 236°
2026-05-04 13:22 -19.16085 -52.75676 37114 ft 458 kts 236°
2026-05-04 13:22 -19.19828 -52.81069 37109 ft 458 kts 236°
2026-05-04 13:23 -19.23593 -52.86500 37108 ft 458 kts 236°
2026-05-04 13:23 -19.27357 -52.91931 37109 ft 457 kts 236°
2026-05-04 13:24 -19.31117 -52.97363 37107 ft 457 kts 236°
2026-05-04 13:24 -19.34875 -53.02799 37106 ft 458 kts 236°
2026-05-04 13:25 -19.40485 -53.10918 37112 ft 457 kts 236°
2026-05-04 13:25 -19.44237 -53.16356 37112 ft 457 kts 236°
2026-05-04 13:26 -19.47985 -53.21793 37113 ft 457 kts 236°
2026-05-04 13:26 -19.51731 -53.27231 37114 ft 456 kts 236°
2026-05-04 13:27 -19.55445 -53.32628 37112 ft 456 kts 236°
2026-05-04 13:27 -19.59184 -53.38066 37112 ft 456 kts 236°
2026-05-04 13:28 -19.62919 -53.43503 37114 ft 456 kts 236°
2026-05-04 13:28 -19.66653 -53.48943 37114 ft 456 kts 236°
2026-05-04 13:29 -19.70386 -53.54387 37112 ft 456 kts 236°
2026-05-04 13:29 -19.74093 -53.59797 37112 ft 456 kts 236°
2026-05-04 13:30 -19.77820 -53.65243 37110 ft 456 kts 236°
2026-05-04 13:30 -19.81548 -53.70694 37110 ft 456 kts 236°
2026-05-04 13:31 -19.85272 -53.76146 37110 ft 456 kts 236°
2026-05-04 13:31 -19.88965 -53.81556 37112 ft 455 kts 236°
2026-05-04 13:32 -19.92681 -53.87004 37110 ft 455 kts 236°
2026-05-04 13:32 -19.96391 -53.92450 37109 ft 455 kts 236°
2026-05-04 13:33 -20.00100 -53.97899 37106 ft 455 kts 236°
2026-05-04 13:33 -20.03781 -54.03311 37107 ft 455 kts 236°
2026-05-04 13:34 -20.07484 -54.08761 37110 ft 454 kts 236°
2026-05-04 13:34 -20.11195 -54.14203 37107 ft 454 kts 236°
2026-05-04 13:35 -20.16765 -54.22363 37108 ft 454 kts 236°
2026-05-04 13:36 -20.20448 -54.27766 37105 ft 454 kts 236°
2026-05-04 13:36 -20.24154 -54.33210 37115 ft 454 kts 236°
2026-05-04 13:37 -20.27854 -54.38649 37110 ft 453 kts 236°
2026-05-04 13:37 -20.31547 -54.44084 37107 ft 453 kts 236°
2026-05-04 13:38 -20.35214 -54.49483 37100 ft 453 kts 236°
2026-05-04 13:38 -20.38902 -54.54921 37102 ft 453 kts 236°
2026-05-04 13:39 -20.42587 -54.60358 37134 ft 452 kts 236°
2026-05-04 13:39 -20.46270 -54.65798 37133 ft 452 kts 236°
2026-05-04 13:40 -20.49788 -54.71287 37128 ft 451 kts 239°
2026-05-04 13:40 -20.51458 -54.74121 36955 ft 453 kts 239°
2026-05-04 13:40 -20.53155 -54.76960 36348 ft 454 kts 239°
2026-05-04 13:40 -20.54854 -54.79800 35744 ft 455 kts 239°
2026-05-04 13:41 -20.56544 -54.82653 35141 ft 455 kts 239°
2026-05-04 13:41 -20.58232 -54.85510 34533 ft 456 kts 239°
2026-05-04 13:41 -20.59933 -54.88375 33896 ft 457 kts 238°
2026-05-04 13:42 -20.63324 -54.94087 32696 ft 453 kts 238°
2026-05-04 13:42 -20.64982 -54.96892 32080 ft 452 kts 238°
2026-05-04 13:42 -20.66656 -54.99721 31479 ft 449 kts 239°
2026-05-04 13:42 -20.68322 -55.02533 30889 ft 447 kts 239°
2026-05-04 13:43 -20.69979 -55.05334 30303 ft 445 kts 239°
2026-05-04 13:43 -20.71625 -55.08121 29679 ft 442 kts 239°
2026-05-04 13:43 -20.73257 -55.10884 29098 ft 437 kts 239°
2026-05-04 13:43 -20.74870 -55.13616 28529 ft 433 kts 239°
2026-05-04 13:44 -20.76470 -55.16325 27956 ft 429 kts 238°
2026-05-04 13:44 -20.78033 -55.18976 27402 ft 425 kts 238°
2026-05-04 13:44 -20.79604 -55.21640 26842 ft 422 kts 238°
2026-05-04 13:44 -20.81160 -55.24280 26289 ft 418 kts 238°
2026-05-04 13:45 -20.82704 -55.26900 25746 ft 415 kts 238°
2026-05-04 13:45 -20.84236 -55.29501 25196 ft 412 kts 238°
2026-05-04 13:45 -20.85756 -55.32085 24655 ft 409 kts 238°
2026-05-04 13:45 -20.87267 -55.34654 24118 ft 408 kts 238°
2026-05-04 13:46 -20.88781 -55.37228 23567 ft 410 kts 238°
2026-05-04 13:46 -20.90299 -55.39809 22991 ft 409 kts 238°
2026-05-04 13:46 -20.91791 -55.42347 22465 ft 407 kts 238°
2026-05-04 13:46 -20.93291 -55.44903 21931 ft 405 kts 238°
2026-05-04 13:47 -20.94784 -55.47447 21391 ft 403 kts 238°
2026-05-04 13:47 -20.96271 -55.49981 20862 ft 401 kts 238°
2026-05-04 13:47 -20.97749 -55.52500 20333 ft 399 kts 238°
2026-05-04 13:47 -20.99221 -55.55012 19810 ft 397 kts 238°
2026-05-04 13:48 -21.00684 -55.57510 19294 ft 395 kts 239°
2026-05-04 13:48 -21.02140 -55.59995 18768 ft 394 kts 239°
2026-05-04 13:48 -21.03590 -55.62471 18235 ft 392 kts 239°
2026-05-04 13:48 -21.05015 -55.64906 17704 ft 389 kts 239°
2026-05-04 13:49 -21.06440 -55.67345 17195 ft 384 kts 239°
2026-05-04 13:49 -21.07851 -55.69758 16687 ft 380 kts 239°
2026-05-04 13:49 -21.09247 -55.72145 16200 ft 376 kts 239°
2026-05-04 13:49 -21.10628 -55.74509 15698 ft 373 kts 239°
2026-05-04 13:50 -21.11994 -55.76850 15211 ft 369 kts 239°
2026-05-04 13:50 -21.13349 -55.79173 14730 ft 366 kts 239°
2026-05-04 13:50 -21.14696 -55.81480 14250 ft 364 kts 239°
2026-05-04 13:50 -21.16016 -55.83742 13763 ft 362 kts 239°
2026-05-04 13:51 -21.17346 -55.86025 13262 ft 360 kts 239°
2026-05-04 13:51 -21.18665 -55.88289 12792 ft 357 kts 239°
2026-05-04 13:51 -21.19976 -55.90540 12322 ft 355 kts 239°
2026-05-04 13:51 -21.21279 -55.92777 11859 ft 354 kts 239°
2026-05-04 13:52 -21.23834 -55.97166 10944 ft 339 kts 239°
2026-05-04 13:52 -21.25068 -55.99290 10503 ft 331 kts 239°
2026-05-04 13:52 -21.26255 -56.01333 10080 ft 324 kts 239°
2026-05-04 13:53 -21.27437 -56.03365 9629 ft 318 kts 239°
2026-05-04 13:53 -21.28578 -56.05329 9217 ft 303 kts 239°
2026-05-04 13:53 -21.29678 -56.07222 8828 ft 297 kts 240°
2026-05-04 13:54 -21.31835 -56.10942 8049 ft 290 kts 240°
2026-05-04 13:54 -21.32892 -56.12762 7676 ft 286 kts 240°
2026-05-04 13:54 -21.34962 -56.16332 6940 ft 282 kts 241°
2026-05-04 13:55 -21.36007 -56.18136 6564 ft 281 kts 241°
2026-05-04 13:55 -21.38053 -56.21669 5806 ft 279 kts 242°
2026-05-04 13:55 -21.39074 -56.23433 5447 ft 278 kts 241°
2026-05-04 13:56 -21.40091 -56.25192 5079 ft 277 kts 241°
2026-05-04 13:56 -21.41105 -56.26943 4704 ft 275 kts 241°
2026-05-04 13:56 -21.42766 -56.30539 3955 ft 264 kts 267°
2026-05-04 13:57 -21.42697 -56.32419 4033 ft 243 kts 280°
2026-05-04 13:57 -21.42519 -56.34172 4073 ft 239 kts 282°
2026-05-04 13:58 -21.41726 -56.39484 3827 ft 238 kts 303°
2026-05-04 13:58 -21.39275 -56.41433 3473 ft 217 kts 347°
2026-05-04 13:58 -21.37842 -56.41861 3324 ft 211 kts 348°
2026-05-04 13:59 -21.36462 -56.42251 3240 ft 203 kts 350°
2026-05-04 13:59 -21.35134 -56.42562 3022 ft 182 kts 351°
2026-05-04 13:59 -21.33055 -56.43121 2651 ft 131 kts 353°
2026-05-04 14:00 -21.32205 -56.43326 2527 ft 122 kts 352°
2026-05-04 14:00 -21.30611 -56.43722 2201 ft 119 kts 352°
2026-05-04 14:00 -21.29776 -56.43928 1931 ft 126 kts 349°
2026-05-04 14:01 -21.28921 -56.44156 1769 ft 125 kts 349°
2026-05-04 14:01 -21.28091 -56.44360 1627 ft 123 kts 349°
2026-05-04 14:01 -21.26429 -56.44791 1292 ft 122 kts 348°
2026-05-04 14:02 -21.25617 -56.45006 1139 ft 119 kts 348°
2026-05-04 14:02 -21.24878 -56.45199 1102 ft 84 kts 346°
2026-05-04 14:02 -21.24554 -56.45284 1100 ft 22 kts 346°
2026-05-04 14:02 -21.24481 -56.45303 1100 ft 9 kts 347°
2026-05-04 14:03 -21.24436 -56.45282 1098 ft 8 kts 62°
2026-05-04 14:03 -21.24422 -56.45232 1102 ft 6 kts 76°
2026-05-04 14:03 -21.24409 -56.45178 1099 ft 5 kts 76°
2026-05-04 14:03 -21.24397 -56.45134 1100 ft 7 kts 59°
2026-05-04 14:04 -21.24342 -56.45084 1099 ft 3 kts 114°
2026-05-04 14:04 -21.24351 -56.45074 1102 ft 0 kts 136°